BEIDOU-2 G4

Last updated on Thu Jul 03 2025 00:02:45 GMT+0000 (Coordinated Universal Time)

1 37210U 10057A 25183.47044059 -.00000107 00000+0 00000+0 0 9995 2 37210 2.7782 70.4505 0004749 174.5528 5.0976 1.00271391 53782
UTC large
Height (km)
Speed (km/s)
/
Latitude / Longitude
Inclination (degrees)
Orbital Period (minutes)
Azimuth
Elevation
Range (km)
Doppler Factor

Next 0 passes for location: London (51.5072 / 0.1276)

Sorry there are no passes over London.